Time,TemperatureF,DewpointF,PressureIn,WindDirection,WindDirectionDegrees,WindSpeedMPH,WindSpeedGustMPH,Humidity,HourlyPrecipIn,Conditions,Clouds,dailyrainin,SoftwareType,DateUTC
2013-09-28 00:08:00,55.9,53.3,30.17,ENE,69,0.0,0.0,91,0.00,,,0.00,Wunderground v.1.15,2013-09-28 04:08:00,
2013-09-28 00:18:00,55.5,52.9,30.16,ENE,69,0.0,0.0,91,0.00,,,0.00,Wunderground v.1.15,2013-09-28 04:18:00,
2013-09-28 00:29:00,55.3,53.0,30.17,ENE,69,0.0,0.0,92,0.00,,,0.00,Wunderground v.1.15,2013-09-28 04:29:00,
2013-09-28 00:39:00,55.3,53.0,30.17,ENE,69,0.0,0.0,92,0.00,,,0.00,Wunderground v.1.15,2013-09-28 04:39:00,
2013-09-28 00:49:00,55.2,53.2,30.17,ENE,69,0.0,0.0,93,0.00,,,0.00,Wunderground v.1.15,2013-09-28 04:49:00,
2013-09-28 00:59:00,55.1,53.1,30.17,ENE,69,0.0,0.0,93,0.00,,,0.00,Wunderground v.1.15,2013-09-28 04:59:00,
2013-09-28 01:09:00,55.2,53.2,30.17,ENE,69,0.0,0.0,93,0.00,,,0.00,Wunderground v.1.15,2013-09-28 05:09:00,
2013-09-28 01:19:00,55.1,53.1,30.17,ENE,69,0.0,0.0,93,0.00,,,0.00,Wunderground v.1.15,2013-09-28 05:19:00,
2013-09-28 01:29:00,55.0,53.3,30.16,ENE,69,0.0,0.0,94,0.00,,,0.00,Wunderground v.1.15,2013-09-28 05:29:00,
2013-09-28 01:39:00,54.9,53.2,30.16,ENE,69,0.0,0.0,94,0.00,,,0.00,Wunderground v.1.15,2013-09-28 05:39:00,
2013-09-28 01:48:00,54.7,53.0,30.16,ENE,69,0.0,0.0,94,0.00,,,0.00,Wunderground v.1.15,2013-09-28 05:48:00,
2013-09-28 01:59:00,54.8,53.4,30.16,ENE,69,0.0,0.0,95,0.00,,,0.00,Wunderground v.1.15,2013-09-28 05:59:00,
2013-09-28 02:08:00,54.5,53.1,30.17,ENE,69,0.0,0.0,95,0.00,,,0.00,Wunderground v.1.15,2013-09-28 06:08:00,
2013-09-28 02:18:00,54.4,53.0,30.17,ENE,69,0.0,0.0,95,0.00,,,0.00,Wunderground v.1.15,2013-09-28 06:18:00,
2013-09-28 02:29:00,54.5,53.1,30.17,ENE,69,0.0,0.0,95,0.00,,,0.00,Wunderground v.1.15,2013-09-28 06:29:00,
2013-09-28 02:38:00,54.8,53.7,30.16,ENE,69,0.0,0.0,96,0.00,,,0.00,Wunderground v.1.15,2013-09-28 06:38:00,
2013-09-28 02:49:00,54.8,53.7,30.16,ENE,69,0.0,0.0,96,0.00,,,0.00,Wunderground v.1.15,2013-09-28 06:49:00,
2013-09-28 02:59:00,55.0,53.9,30.16,ENE,69,0.0,0.0,96,0.00,,,0.00,Wunderground v.1.15,2013-09-28 06:59:00,
2013-09-28 03:08:00,55.1,54.0,30.16,ENE,69,0.0,0.0,96,0.00,,,0.00,Wunderground v.1.15,2013-09-28 07:08:00,
2013-09-28 03:18:00,55.2,54.1,30.16,ENE,69,0.0,0.0,96,0.00,,,0.00,Wunderground v.1.15,2013-09-28 07:18:00,
2013-09-28 03:28:00,55.5,54.4,30.16,ENE,69,0.0,0.0,96,0.00,,,0.00,Wunderground v.1.15,2013-09-28 07:28:00,
2013-09-28 03:38:00,55.0,53.9,30.16,ENE,69,0.0,0.0,96,0.00,,,0.00,Wunderground v.1.15,2013-09-28 07:38:00,
2013-09-28 03:48:00,55.3,54.5,30.15,ENE,69,0.0,0.0,97,0.00,,,0.00,Wunderground v.1.15,2013-09-28 07:48:00,
2013-09-28 03:58:00,55.1,54.3,30.15,ENE,69,0.0,0.0,97,0.00,,,0.00,Wunderground v.1.15,2013-09-28 07:58:00,
2013-09-28 04:08:00,55.0,54.2,30.15,ENE,69,0.0,0.0,97,0.00,,,0.00,Wunderground v.1.15,2013-09-28 08:08:00,
2013-09-28 04:18:00,54.9,54.1,30.15,ENE,69,0.0,0.0,97,0.00,,,0.00,Wunderground v.1.15,2013-09-28 08:18:00,
2013-09-28 04:28:00,55.0,54.2,30.15,ENE,69,0.0,0.0,97,0.00,,,0.00,Wunderground v.1.15,2013-09-28 08:28:00,
2013-09-28 04:38:00,55.4,54.6,30.15,ENE,69,0.0,0.0,97,0.00,,,0.00,Wunderground v.1.15,2013-09-28 08:38:00,
2013-09-28 04:48:00,55.3,54.5,30.15,ENE,69,0.0,0.0,97,0.00,,,0.00,Wunderground v.1.15,2013-09-28 08:48:00,
2013-09-28 04:58:00,55.5,54.7,30.16,ENE,69,0.0,0.0,97,0.00,,,0.00,Wunderground v.1.15,2013-09-28 08:58:00,
2013-09-28 05:08:00,55.2,54.4,30.16,ENE,69,0.0,0.0,97,0.00,,,0.00,Wunderground v.1.15,2013-09-28 09:08:00,
2013-09-28 05:18:00,55.0,54.2,30.16,ENE,69,0.0,0.0,97,0.00,,,0.00,Wunderground v.1.15,2013-09-28 09:18:00,
2013-09-28 05:28:00,55.0,54.2,30.16,ENE,69,0.0,0.0,97,0.00,,,0.00,Wunderground v.1.15,2013-09-28 09:28:00,
2013-09-28 05:38:00,55.0,54.2,30.16,ENE,69,0.0,0.0,97,0.00,,,0.00,Wunderground v.1.15,2013-09-28 09:38:00,
2013-09-28 05:48:00,55.1,54.3,30.16,ENE,69,0.0,0.0,97,0.00,,,0.00,Wunderground v.1.15,2013-09-28 09:48:00,
2013-09-28 05:58:00,55.2,54.4,30.16,ENE,69,0.0,0.0,97,0.00,,,0.00,Wunderground v.1.15,2013-09-28 09:58:00,
2013-09-28 06:08:00,54.9,54.1,30.16,ENE,69,0.0,0.0,97,0.00,,,0.00,Wunderground v.1.15,2013-09-28 10:08:00,
2013-09-28 06:18:00,54.8,54.0,30.16,ENE,69,0.0,0.0,97,0.00,,,0.00,Wunderground v.1.15,2013-09-28 10:18:00,
2013-09-28 06:28:00,54.6,53.8,30.16,ENE,69,0.0,0.0,97,0.00,,,0.00,Wunderground v.1.15,2013-09-28 10:28:00,
2013-09-28 06:48:00,54.4,53.6,30.17,ENE,69,0.0,0.0,97,0.00,,,0.00,Wunderground v.1.15,2013-09-28 10:48:00,
2013-09-28 06:58:00,54.2,53.4,30.17,ENE,69,0.0,0.0,97,0.00,,,0.00,Wunderground v.1.15,2013-09-28 10:58:00,
2013-09-28 07:08:00,54.4,53.6,30.17,ENE,69,0.0,0.0,97,0.00,,,0.00,Wunderground v.1.15,2013-09-28 11:08:00,
2013-09-28 07:18:00,55.6,55.0,30.17,ENE,69,0.0,0.0,98,0.00,,,0.00,Wunderground v.1.15,2013-09-28 11:18:00,
2013-09-28 07:28:00,55.4,54.8,30.17,ENE,69,0.0,0.0,98,0.00,,,0.00,Wunderground v.1.15,2013-09-28 11:28:00,
2013-09-28 07:38:00,55.2,54.6,30.18,ENE,69,0.0,0.0,98,0.00,,,0.00,Wunderground v.1.15,2013-09-28 11:38:00,
2013-09-28 07:48:00,55.4,54.8,30.17,ENE,69,0.0,0.0,98,0.00,,,0.00,Wunderground v.1.15,2013-09-28 11:48:00,
2013-09-28 07:58:00,55.7,55.1,30.18,ENE,69,0.0,0.0,98,0.00,,,0.00,Wunderground v.1.15,2013-09-28 11:58:00,
2013-09-28 08:08:00,55.9,55.3,30.18,ENE,69,0.0,0.0,98,0.00,,,0.00,Wunderground v.1.15,2013-09-28 12:08:00,
2013-09-28 08:18:00,56.5,55.9,30.18,ENE,69,0.0,0.0,98,0.00,,,0.00,Wunderground v.1.15,2013-09-28 12:18:00,
2013-09-28 08:28:00,57.6,57.0,30.18,ENE,69,0.0,0.0,98,0.00,,,0.00,Wunderground v.1.15,2013-09-28 12:28:00,
2013-09-28 08:38:00,58.8,58.2,30.18,ENE,78,0.0,0.0,98,0.00,,,0.00,Wunderground v.1.15,2013-09-28 12:38:00,
2013-09-28 08:48:00,60.2,59.6,30.18,East,98,0.0,0.0,98,0.00,,,0.00,Wunderground v.1.15,2013-09-28 12:48:00,
2013-09-28 08:58:00,61.6,61.0,30.17,ESE,107,0.0,0.0,98,0.00,,,0.00,Wunderground v.1.15,2013-09-28 12:58:00,
2013-09-28 09:00:00,61.6,61.0,30.17,N/A,-737280,0.0,-999.0,98,0.00,,,0.00,Wunderground v.1.15,2013-09-28 13:00:00,
2013-09-28 09:05:00,62.3,61.4,30.17,N/A,-737280,0.0,-999.0,97,0.00,,,0.00,Wunderground v.1.15,2013-09-28 13:05:00,
2013-09-28 09:08:00,62.9,61.7,30.17,SE,134,0.0,0.0,96,0.00,,,0.00,Wunderground v.1.15,2013-09-28 13:08:00,
2013-09-28 09:10:00,62.9,61.7,30.17,N/A,-737280,0.0,-999.0,96,0.00,,,0.00,Wunderground v.1.15,2013-09-28 13:10:00,
2013-09-28 09:15:00,63.3,61.8,30.17,N/A,-737280,0.0,-999.0,95,0.00,,,0.00,Wunderground v.1.15,2013-09-28 13:15:00,
2013-09-28 09:18:00,63.7,62.2,30.17,ESE,111,0.0,0.0,95,0.00,,,0.00,Wunderground v.1.15,2013-09-28 13:18:00,
2013-09-28 09:20:00,63.7,62.2,30.17,N/A,-737280,0.0,-999.0,95,0.00,,,0.00,Wunderground v.1.15,2013-09-28 13:20:00,
2013-09-28 09:25:00,64.2,62.4,30.17,N/A,-737280,0.0,-999.0,94,0.00,,,0.00,Wunderground v.1.15,2013-09-28 13:25:00,
2013-09-28 09:29:00,64.8,62.7,30.18,SE,143,0.0,0.0,93,0.00,,,0.00,Wunderground v.1.15,2013-09-28 13:29:00,
2013-09-28 09:30:00,64.7,62.6,30.17,N/A,-737280,0.0,-999.0,93,0.00,,,0.00,Wunderground v.1.15,2013-09-28 13:30:00,
2013-09-28 09:35:00,65.0,62.3,30.18,N/A,-737280,0.0,-999.0,91,0.00,,,0.00,Wunderground v.1.15,2013-09-28 13:35:00,
2013-09-28 09:39:00,65.2,62.2,30.18,SSE,155,0.0,0.0,90,0.00,,,0.00,Wunderground v.1.15,2013-09-28 13:39:00,
2013-09-28 09:40:00,65.1,61.8,30.18,N/A,-737280,0.0,-999.0,89,0.00,,,0.00,Wunderground v.1.15,2013-09-28 13:40:00,
2013-09-28 09:45:00,65.5,62.2,30.17,N/A,-737280,0.0,-999.0,89,0.00,,,0.00,Wunderground v.1.15,2013-09-28 13:45:00,
2013-09-28 09:49:00,66.1,62.4,30.18,ESE,110,0.0,0.0,88,0.00,,,0.00,Wunderground v.1.15,2013-09-28 13:49:00,
2013-09-28 09:50:00,65.9,61.9,30.18,N/A,-737280,0.0,-999.0,87,0.00,,,0.00,Wunderground v.1.15,2013-09-28 13:50:00,
2013-09-28 09:55:00,66.5,62.2,30.18,N/A,-737280,0.0,-999.0,86,0.00,,,0.00,Wunderground v.1.15,2013-09-28 13:55:00,
2013-09-28 09:59:00,66.8,62.1,30.17,SSE,162,0.0,0.0,85,0.00,,,0.00,Wunderground v.1.15,2013-09-28 13:59:00,
2013-09-28 10:00:00,66.7,62.0,30.17,N/A,-737280,0.0,-999.0,85,0.00,,,0.00,Wunderground v.1.15,2013-09-28 14:00:00,
2013-09-28 10:05:00,67.1,62.1,30.17,N/A,-737280,0.0,-999.0,84,0.00,,,0.00,Wunderground v.1.15,2013-09-28 14:05:00,
2013-09-28 10:09:00,67.2,61.5,30.18,SSE,148,0.0,0.0,82,0.00,,,0.00,Wunderground v.1.15,2013-09-28 14:09:00,
2013-09-28 10:10:00,67.1,61.4,30.18,N/A,-737280,0.0,-999.0,82,0.00,,,0.00,Wunderground v.1.15,2013-09-28 14:10:00,
2013-09-28 10:15:00,67.1,60.7,30.18,N/A,-737280,0.0,-999.0,80,0.00,,,0.00,Wunderground v.1.15,2013-09-28 14:15:00,
2013-09-28 10:19:00,67.6,61.6,30.18,SE,141,0.0,0.0,81,0.00,,,0.00,Wunderground v.1.15,2013-09-28 14:19:00,
2013-09-28 10:20:00,67.4,61.0,30.18,N/A,-737280,0.0,-999.0,80,0.00,,,0.00,Wunderground v.1.15,2013-09-28 14:20:00,
2013-09-28 10:25:00,67.7,61.0,30.18,N/A,-737280,0.0,-999.0,79,0.00,,,0.00,Wunderground v.1.15,2013-09-28 14:25:00,
2013-09-28 10:29:00,67.9,60.4,30.18,South,169,0.0,0.0,77,0.00,,,0.00,Wunderground v.1.15,2013-09-28 14:29:00,
2013-09-28 10:30:00,67.7,61.0,30.18,N/A,-737280,0.0,-999.0,79,0.00,,,0.00,Wunderground v.1.15,2013-09-28 14:30:00,
2013-09-28 10:35:00,68.0,59.8,30.18,N/A,-737280,0.0,-999.0,75,0.00,,,0.00,Wunderground v.1.15,2013-09-28 14:35:00,
2013-09-28 10:39:00,68.1,59.1,30.18,SSE,160,0.0,0.0,73,0.00,,,0.00,Wunderground v.1.15,2013-09-28 14:39:00,
2013-09-28 10:40:00,68.1,58.3,30.18,N/A,-737280,0.0,-999.0,71,0.00,,,0.00,Wunderground v.1.15,2013-09-28 14:40:00,
2013-09-28 10:45:00,69.3,60.7,30.18,N/A,-737280,0.0,-999.0,74,0.00,,,0.00,Wunderground v.1.15,2013-09-28 14:45:00,
2013-09-28 10:49:00,69.5,60.5,30.18,South,173,0.0,0.0,73,0.00,,,0.00,Wunderground v.1.15,2013-09-28 14:49:00,
2013-09-28 10:50:00,69.5,60.1,30.18,N/A,-737280,0.0,-999.0,72,0.00,,,0.00,Wunderground v.1.15,2013-09-28 14:50:00,
2013-09-28 10:55:00,68.7,58.5,30.18,N/A,-737280,0.0,-999.0,70,0.00,,,0.00,Wunderground v.1.15,2013-09-28 14:55:00,
2013-09-28 10:59:00,68.8,60.2,30.18,SSE,166,0.0,0.0,74,0.00,,,0.00,Wunderground v.1.15,2013-09-28 14:59:00,
2013-09-28 11:00:00,68.7,60.1,30.18,N/A,-737280,0.0,-999.0,74,0.00,,,0.00,Wunderground v.1.15,2013-09-28 15:00:00,
2013-09-28 11:05:00,68.9,60.3,30.18,N/A,-737280,0.0,-999.0,74,0.00,,,0.00,Wunderground v.1.15,2013-09-28 15:05:00,
2013-09-28 11:09:00,69.1,59.3,30.18,SSE,164,0.0,0.0,71,0.00,,,0.00,Wunderground v.1.15,2013-09-28 15:09:00,
2013-09-28 11:10:00,69.2,59.4,30.18,N/A,-737280,0.0,-999.0,71,0.00,,,0.00,Wunderground v.1.15,2013-09-28 15:10:00,
2013-09-28 11:15:00,69.3,59.9,30.18,N/A,-737280,0.0,-999.0,72,0.00,,,0.00,Wunderground v.1.15,2013-09-28 15:15:00,
2013-09-28 11:19:00,69.2,59.8,30.18,SE,138,0.0,0.0,72,0.00,,,0.00,Wunderground v.1.15,2013-09-28 15:19:00,
2013-09-28 11:20:00,69.1,60.5,30.18,N/A,-737280,0.0,-999.0,74,0.00,,,0.00,Wunderground v.1.15,2013-09-28 15:20:00,
2013-09-28 11:25:00,69.8,59.6,30.18,N/A,-737280,0.0,-999.0,70,0.00,,,0.00,Wunderground v.1.15,2013-09-28 15:25:00,
2013-09-28 11:29:00,70.4,59.7,30.18,SSE,152,0.0,0.0,69,0.00,,,0.00,Wunderground v.1.15,2013-09-28 15:29:00,
2013-09-28 11:30:00,70.1,59.9,30.18,N/A,-737280,0.0,-999.0,70,0.00,,,0.00,Wunderground v.1.15,2013-09-28 15:30:00,
2013-09-28 11:35:00,70.1,59.0,30.18,N/A,-737280,0.0,-999.0,68,0.00,,,0.00,Wunderground v.1.15,2013-09-28 15:35:00,
2013-09-28 11:40:00,70.4,59.3,30.18,N/A,-737280,0.0,-999.0,68,0.00,,,0.00,Wunderground v.1.15,2013-09-28 15:40:00,
2013-09-28 11:45:00,70.8,58.9,30.18,N/A,-737280,0.0,-999.0,66,0.00,,,0.00,Wunderground v.1.15,2013-09-28 15:45:00,
2013-09-28 11:48:00,70.9,58.5,30.18,SSE,159,0.0,0.0,65,0.00,,,0.00,Wunderground v.1.15,2013-09-28 15:48:00,
2013-09-28 11:50:00,70.8,58.4,30.18,N/A,-737280,0.0,-999.0,65,0.00,,,0.00,Wunderground v.1.15,2013-09-28 15:50:00,
2013-09-28 11:55:00,71.3,58.9,30.18,N/A,-737280,0.0,-999.0,65,0.00,,,0.00,Wunderground v.1.15,2013-09-28 15:55:00,
2013-09-28 11:59:00,71.6,58.8,30.18,SE,140,0.0,0.0,64,0.00,,,0.00,Wunderground v.1.15,2013-09-28 15:59:00,
2013-09-28 12:00:00,71.6,59.2,30.18,N/A,-737280,0.0,-999.0,65,0.00,,,0.00,Wunderground v.1.15,2013-09-28 16:00:00,
2013-09-28 12:05:00,71.8,58.5,30.18,N/A,-737280,0.0,-999.0,63,0.00,,,0.00,Wunderground v.1.15,2013-09-28 16:05:00,
2013-09-28 12:08:00,72.8,59.0,30.17,SW,223,0.0,0.0,62,0.00,,,0.00,Wunderground v.1.15,2013-09-28 16:08:00,
2013-09-28 12:10:00,72.7,58.9,30.17,N/A,-737280,0.0,-999.0,62,0.00,,,0.00,Wunderground v.1.15,2013-09-28 16:10:00,
2013-09-28 12:15:00,72.2,58.5,30.18,N/A,-737280,0.0,-999.0,62,0.00,,,0.00,Wunderground v.1.15,2013-09-28 16:15:00,
2013-09-28 12:18:00,71.9,58.2,30.17,SW,228,0.0,0.0,62,0.00,,,0.00,Wunderground v.1.15,2013-09-28 16:18:00,
2013-09-28 12:20:00,71.9,58.2,30.17,N/A,-737280,0.0,-999.0,62,0.00,,,0.00,Wunderground v.1.15,2013-09-28 16:20:00,
2013-09-28 12:25:00,72.6,58.8,30.17,N/A,-737280,0.0,-999.0,62,0.00,,,0.00,Wunderground v.1.15,2013-09-28 16:25:00,
2013-09-28 12:28:00,72.4,56.3,30.17,WSW,242,0.0,0.0,57,0.00,,,0.00,Wunderground v.1.15,2013-09-28 16:28:00,
2013-09-28 12:30:00,72.3,56.7,30.17,N/A,-737280,0.0,-999.0,58,0.00,,,0.00,Wunderground v.1.15,2013-09-28 16:30:00,
2013-09-28 12:35:00,72.8,56.2,30.16,N/A,-737280,0.0,-999.0,56,0.00,,,0.00,Wunderground v.1.15,2013-09-28 16:35:00,
2013-09-28 12:38:00,73.1,55.5,30.16,SSE,159,0.0,0.0,54,0.00,,,0.00,Wunderground v.1.15,2013-09-28 16:38:00,
2013-09-28 12:40:00,73.0,55.9,30.16,N/A,-737280,0.0,-999.0,55,0.00,,,0.00,Wunderground v.1.15,2013-09-28 16:40:00,
2013-09-28 12:45:00,73.7,56.5,30.16,N/A,-737280,0.0,-999.0,55,0.00,,,0.00,Wunderground v.1.15,2013-09-28 16:45:00,
2013-09-28 12:48:00,73.7,56.0,30.16,SE,144,0.0,0.0,54,0.00,,,0.00,Wunderground v.1.15,2013-09-28 16:48:00,
2013-09-28 12:50:00,73.7,56.0,30.16,N/A,-737280,0.0,-999.0,54,0.00,,,0.00,Wunderground v.1.15,2013-09-28 16:50:00,
2013-09-28 12:55:00,74.1,55.9,30.16,N/A,-737280,0.0,-999.0,53,0.00,,,0.00,Wunderground v.1.15,2013-09-28 16:55:00,
2013-09-28 12:59:00,74.0,56.8,30.16,South,170,0.0,0.0,55,0.00,,,0.00,Wunderground v.1.15,2013-09-28 16:59:00,
2013-09-28 13:00:00,74.0,55.3,30.16,N/A,-737280,0.0,-999.0,52,0.00,,,0.00,Wunderground v.1.15,2013-09-28 17:00:00,
2013-09-28 13:05:00,74.7,55.9,30.16,N/A,-737280,0.0,-999.0,52,0.00,,,0.00,Wunderground v.1.15,2013-09-28 17:05:00,
2013-09-28 13:08:00,74.4,55.6,30.15,SSW,194,1.0,2.0,52,0.00,,,0.00,Wunderground v.1.15,2013-09-28 17:08:00,
2013-09-28 13:10:00,74.3,55.0,30.15,South,180,1.0,-999.0,51,0.00,,,0.00,Wunderground v.1.15,2013-09-28 17:10:00,
2013-09-28 13:15:00,74.3,54.5,30.15,SSE,158,2.0,-999.0,50,0.00,,,0.00,Wunderground v.1.15,2013-09-28 17:15:00,
2013-09-28 13:19:00,74.7,53.7,30.15,SSE,154,2.0,2.0,48,0.00,,,0.00,Wunderground v.1.15,2013-09-28 17:19:00,
2013-09-28 13:20:00,74.8,54.4,30.15,SE,135,3.0,-999.0,49,0.00,,,0.00,Wunderground v.1.15,2013-09-28 17:20:00,
2013-09-28 13:25:00,74.2,53.8,30.15,SSE,158,3.0,-999.0,49,0.00,,,0.00,Wunderground v.1.15,2013-09-28 17:25:00,
2013-09-28 13:28:00,75.1,54.1,30.14,SSE,165,2.0,2.0,48,0.00,,,0.00,Wunderground v.1.15,2013-09-28 17:28:00,
2013-09-28 13:30:00,75.2,54.2,30.14,SSE,158,3.0,-999.0,48,0.00,,,0.00,Wunderground v.1.15,2013-09-28 17:30:00,
2013-09-28 13:35:00,74.4,54.0,30.14,SSE,158,5.0,-999.0,49,0.00,,,0.00,Wunderground v.1.15,2013-09-28 17:35:00,
2013-09-28 13:38:00,74.9,53.3,30.14,South,188,3.0,3.0,47,0.00,,,0.00,Wunderground v.1.15,2013-09-28 17:38:00,
2013-09-28 13:40:00,75.0,54.0,30.14,SSE,158,4.0,-999.0,48,0.00,,,0.00,Wunderground v.1.15,2013-09-28 17:40:00,
2013-09-28 13:45:00,74.4,53.4,30.13,SSE,158,5.0,-999.0,48,0.00,,,0.00,Wunderground v.1.15,2013-09-28 17:45:00,
2013-09-28 13:48:00,74.9,54.4,30.13,SSW,203,3.0,3.0,49,0.00,,,0.00,Wunderground v.1.15,2013-09-28 17:48:00,
2013-09-28 13:50:00,74.9,54.4,30.13,SW,225,3.0,-999.0,49,0.00,,,0.00,Wunderground v.1.15,2013-09-28 17:50:00,
2013-09-28 13:55:00,74.8,54.4,30.13,SE,135,4.0,-999.0,49,0.00,,,0.00,Wunderground v.1.15,2013-09-28 17:55:00,
2013-09-28 13:59:00,75.8,55.3,30.12,South,180,3.0,3.0,49,0.00,,,0.00,Wunderground v.1.15,2013-09-28 17:59:00,
2013-09-28 14:00:00,75.5,55.0,30.12,SE,135,2.0,-999.0,49,0.00,,,0.00,Wunderground v.1.15,2013-09-28 18:00:00,
2013-09-28 14:05:00,75.6,55.1,30.12,SE,135,4.0,-999.0,49,0.00,,,0.00,Wunderground v.1.15,2013-09-28 18:05:00,
2013-09-28 14:08:00,75.8,54.7,30.12,SE,142,4.0,4.0,48,0.00,,,0.00,Wunderground v.1.15,2013-09-28 18:08:00,
2013-09-28 14:10:00,75.8,54.1,30.12,ESE,113,3.0,-999.0,47,0.00,,,0.00,Wunderground v.1.15,2013-09-28 18:10:00,
2013-09-28 14:15:00,75.8,54.7,30.12,SSE,158,3.0,-999.0,48,0.00,,,0.00,Wunderground v.1.15,2013-09-28 18:15:00,
2013-09-28 14:18:00,75.2,54.7,30.11,SSE,162,3.0,3.0,49,0.00,,,0.00,Wunderground v.1.15,2013-09-28 18:18:00,
2013-09-28 14:20:00,75.3,53.7,30.11,SSE,158,4.0,-999.0,47,0.00,,,0.00,Wunderground v.1.15,2013-09-28 18:20:00,
2013-09-28 14:25:00,75.1,54.1,30.11,SSE,158,6.0,-999.0,48,0.00,,,0.00,Wunderground v.1.15,2013-09-28 18:25:00,
2013-09-28 14:28:00,75.6,55.1,30.11,SSE,163,4.0,6.0,49,0.00,,,0.00,Wunderground v.1.15,2013-09-28 18:28:00,
2013-09-28 14:30:00,75.5,55.6,30.11,SSE,158,4.0,-999.0,50,0.00,,,0.00,Wunderground v.1.15,2013-09-28 18:30:00,
2013-09-28 14:35:00,75.4,56.0,30.11,SE,135,3.0,-999.0,51,0.00,,,0.00,Wunderground v.1.15,2013-09-28 18:35:00,
2013-09-28 14:38:00,74.9,55.6,30.10,SE,138,3.0,7.0,51,0.00,,,0.00,Wunderground v.1.15,2013-09-28 18:38:00,
2013-09-28 14:40:00,75.0,55.6,30.10,ESE,113,4.0,-999.0,51,0.00,,,0.00,Wunderground v.1.15,2013-09-28 18:40:00,
2013-09-28 14:45:00,75.5,55.6,30.10,SE,135,6.0,-999.0,50,0.00,,,0.00,Wunderground v.1.15,2013-09-28 18:45:00,
2013-09-28 14:48:00,74.5,55.7,30.10,SSE,148,5.0,5.0,52,0.00,,,0.00,Wunderground v.1.15,2013-09-28 18:48:00,
2013-09-28 14:50:00,74.6,55.8,30.10,SSE,158,6.0,-999.0,52,0.00,,,0.00,Wunderground v.1.15,2013-09-28 18:50:00,
2013-09-28 14:55:00,75.1,55.2,30.10,SSE,158,4.0,-999.0,50,0.00,,,0.00,Wunderground v.1.15,2013-09-28 18:55:00,
2013-09-28 14:58:00,74.8,56.5,30.10,SSE,156,4.0,7.0,53,0.00,,,0.00,Wunderground v.1.15,2013-09-28 18:58:00,
2013-09-28 15:00:00,74.8,56.0,30.10,SE,135,4.0,-999.0,52,0.00,,,0.00,Wunderground v.1.15,2013-09-28 19:00:00,
2013-09-28 15:05:00,75.3,57.0,30.10,SE,135,3.0,-999.0,53,0.00,,,0.00,Wunderground v.1.15,2013-09-28 19:05:00,
2013-09-28 15:08:00,75.1,56.3,30.10,SE,142,4.0,4.0,52,0.00,,,0.00,Wunderground v.1.15,2013-09-28 19:08:00,
2013-09-28 15:10:00,75.1,56.3,30.10,SSE,158,4.0,-999.0,52,0.00,,,0.00,Wunderground v.1.15,2013-09-28 19:10:00,
2013-09-28 15:15:00,74.8,57.0,30.10,South,180,5.0,-999.0,54,0.00,,,0.00,Wunderground v.1.15,2013-09-28 19:15:00,
2013-09-28 15:18:00,75.2,56.9,30.09,South,172,5.0,5.0,53,0.00,,,0.00,Wunderground v.1.15,2013-09-28 19:18:00,
2013-09-28 15:20:00,75.1,56.8,30.10,SSE,158,4.0,-999.0,53,0.00,,,0.00,Wunderground v.1.15,2013-09-28 19:20:00,
2013-09-28 15:25:00,75.0,56.7,30.09,SE,135,4.0,-999.0,53,0.00,,,0.00,Wunderground v.1.15,2013-09-28 19:25:00,
2013-09-28 15:28:00,74.8,58.1,30.09,SSE,156,3.0,4.0,56,0.00,,,0.00,Wunderground v.1.15,2013-09-28 19:28:00,
2013-09-28 15:30:00,74.7,57.5,30.09,SSE,158,2.0,-999.0,55,0.00,,,0.00,Wunderground v.1.15,2013-09-28 19:30:00,
2013-09-28 15:35:00,75.3,57.0,30.09,SE,135,4.0,-999.0,53,0.00,,,0.00,Wunderground v.1.15,2013-09-28 19:35:00,
2013-09-28 15:38:00,75.2,57.4,30.09,ESE,121,4.0,5.0,54,0.00,,,0.00,Wunderground v.1.15,2013-09-28 19:38:00,
2013-09-28 15:40:00,75.3,57.5,30.09,SE,135,3.0,-999.0,54,0.00,,,0.00,Wunderground v.1.15,2013-09-28 19:40:00,
2013-09-28 15:45:00,74.7,57.5,30.09,SE,135,3.0,-999.0,55,0.00,,,0.00,Wunderground v.1.15,2013-09-28 19:45:00,
2013-09-28 15:48:00,75.0,57.7,30.08,SE,136,4.0,4.0,55,0.00,,,0.00,Wunderground v.1.15,2013-09-28 19:48:00,
2013-09-28 15:50:00,74.8,57.0,30.09,SE,135,5.0,-999.0,54,0.00,,,0.00,Wunderground v.1.15,2013-09-28 19:50:00,
2013-09-28 15:55:00,75.0,57.2,30.08,ESE,113,7.0,-999.0,54,0.00,,,0.00,Wunderground v.1.15,2013-09-28 19:55:00,
2013-09-28 15:58:00,74.9,57.6,30.08,ESE,115,5.0,5.0,55,0.00,,,0.00,Wunderground v.1.15,2013-09-28 19:58:00,
2013-09-28 16:00:00,74.9,57.1,30.08,East,90,6.0,-999.0,54,0.00,,,0.00,Wunderground v.1.15,2013-09-28 20:00:00,
2013-09-28 16:05:00,75.1,56.3,30.08,ESE,113,4.0,-999.0,52,0.00,,,0.00,Wunderground v.1.15,2013-09-28 20:05:00,
2013-09-28 16:08:00,74.8,56.5,30.08,SE,126,5.0,5.0,53,0.00,,,0.00,Wunderground v.1.15,2013-09-28 20:08:00,
2013-09-28 16:10:00,74.8,56.5,30.08,SE,135,6.0,-999.0,53,0.00,,,0.00,Wunderground v.1.15,2013-09-28 20:10:00,
2013-09-28 16:15:00,74.8,57.0,30.08,SE,135,5.0,-999.0,54,0.00,,,0.00,Wunderground v.1.15,2013-09-28 20:15:00,
2013-09-28 16:18:00,75.3,57.5,30.07,ESE,121,4.0,4.0,54,0.00,,,0.00,Wunderground v.1.15,2013-09-28 20:18:00,
2013-09-28 16:20:00,75.3,57.5,30.07,ESE,113,4.0,-999.0,54,0.00,,,0.00,Wunderground v.1.15,2013-09-28 20:20:00,
2013-09-28 16:25:00,74.8,57.0,30.07,ESE,113,6.0,-999.0,54,0.00,,,0.00,Wunderground v.1.15,2013-09-28 20:25:00,
2013-09-28 16:28:00,74.7,57.5,30.07,ESE,117,5.0,7.0,55,0.00,,,0.00,Wunderground v.1.15,2013-09-28 20:28:00,
2013-09-28 16:30:00,74.7,57.5,30.07,ESE,113,4.0,-999.0,55,0.00,,,0.00,Wunderground v.1.15,2013-09-28 20:30:00,
2013-09-28 16:35:00,74.3,57.1,30.07,SE,135,3.0,-999.0,55,0.00,,,0.00,Wunderground v.1.15,2013-09-28 20:35:00,
2013-09-28 16:38:00,74.2,57.5,30.07,SE,134,4.0,5.0,56,0.00,,,0.00,Wunderground v.1.15,2013-09-28 20:38:00,
2013-09-28 16:40:00,74.1,56.9,30.07,ESE,113,4.0,-999.0,55,0.00,,,0.00,Wunderground v.1.15,2013-09-28 20:40:00,
2013-09-28 16:45:00,74.2,56.5,30.07,ESE,113,6.0,-999.0,54,0.00,,,0.00,Wunderground v.1.15,2013-09-28 20:45:00,
2013-09-28 16:48:00,74.0,56.8,30.06,SE,138,5.0,5.0,55,0.00,,,0.00,Wunderground v.1.15,2013-09-28 20:48:00,
2013-09-28 16:50:00,73.9,56.7,30.07,SE,135,5.0,-999.0,55,0.00,,,0.00,Wunderground v.1.15,2013-09-28 20:50:00,
2013-09-28 16:55:00,74.4,56.2,30.06,SE,135,5.0,-999.0,53,0.00,,,0.00,Wunderground v.1.15,2013-09-28 20:55:00,
2013-09-28 16:58:00,73.8,56.1,30.06,East,81,5.0,5.0,54,0.00,,,0.00,Wunderground v.1.15,2013-09-28 20:58:00,
2013-09-28 17:00:00,73.8,56.1,30.06,ESE,113,5.0,-999.0,54,0.00,,,0.00,Wunderground v.1.15,2013-09-28 21:00:00,
2013-09-28 17:05:00,74.1,55.3,30.06,SE,135,4.0,-999.0,52,0.00,,,0.00,Wunderground v.1.15,2013-09-28 21:05:00,
2013-09-28 17:08:00,73.7,55.5,30.07,South,179,4.0,6.0,53,0.00,,,0.00,Wunderground v.1.15,2013-09-28 21:08:00,
2013-09-28 17:10:00,73.8,56.1,30.07,SE,135,4.0,-999.0,54,0.00,,,0.00,Wunderground v.1.15,2013-09-28 21:10:00,
2013-09-28 17:15:00,73.5,55.8,30.06,ESE,113,4.0,-999.0,54,0.00,,,0.00,Wunderground v.1.15,2013-09-28 21:15:00,
2013-09-28 17:18:00,73.3,56.2,30.06,SE,144,5.0,5.0,55,0.00,,,0.00,Wunderground v.1.15,2013-09-28 21:18:00,
2013-09-28 17:20:00,73.4,56.2,30.06,ESE,113,5.0,-999.0,55,0.00,,,0.00,Wunderground v.1.15,2013-09-28 21:20:00,
2013-09-28 17:25:00,73.4,57.2,30.06,ESE,113,4.0,-999.0,57,0.00,,,0.00,Wunderground v.1.15,2013-09-28 21:25:00,
2013-09-28 17:28:00,73.0,57.3,30.06,ESE,115,4.0,5.0,58,0.00,,,0.00,Wunderground v.1.15,2013-09-28 21:28:00,
2013-09-28 17:30:00,73.1,57.4,30.06,ESE,113,5.0,-999.0,58,0.00,,,0.00,Wunderground v.1.15,2013-09-28 21:30:00,
2013-09-28 17:35:00,72.9,57.3,30.06,East,90,5.0,-999.0,58,0.00,,,0.00,Wunderground v.1.15,2013-09-28 21:35:00,
2013-09-28 17:38:00,72.8,58.1,30.06,East,101,4.0,6.0,60,0.00,,,0.00,Wunderground v.1.15,2013-09-28 21:38:00,
2013-09-28 17:40:00,72.8,58.1,30.06,ESE,113,4.0,-999.0,60,0.00,,,0.00,Wunderground v.1.15,2013-09-28 21:40:00,
2013-09-28 17:45:00,72.7,57.5,30.06,ESE,113,6.0,-999.0,59,0.00,,,0.00,Wunderground v.1.15,2013-09-28 21:45:00,
2013-09-28 17:48:00,72.1,57.0,30.06,ESE,107,5.0,5.0,59,0.00,,,0.00,Wunderground v.1.15,2013-09-28 21:48:00,
2013-09-28 17:50:00,72.1,57.0,30.06,ESE,113,6.0,-999.0,59,0.00,,,0.00,Wunderground v.1.15,2013-09-28 21:50:00,
2013-09-28 17:55:00,71.8,58.1,30.06,ESE,113,3.0,-999.0,62,0.00,,,0.00,Wunderground v.1.15,2013-09-28 21:55:00,
2013-09-28 17:58:00,71.6,57.9,30.06,ESE,108,4.0,5.0,62,0.00,,,0.00,Wunderground v.1.15,2013-09-28 21:58:00,
2013-09-28 18:00:00,71.6,57.9,30.06,East,90,4.0,-999.0,62,0.00,,,0.00,Wunderground v.1.15,2013-09-28 22:00:00,
2013-09-28 18:05:00,71.3,58.5,30.06,ESE,113,6.0,-999.0,64,0.00,,,0.00,Wunderground v.1.15,2013-09-28 22:05:00,
2013-09-28 18:08:00,71.0,58.6,30.06,ESE,103,5.0,5.0,65,0.00,,,0.00,Wunderground v.1.15,2013-09-28 22:08:00,
2013-09-28 18:10:00,71.1,58.7,30.06,ESE,113,5.0,-999.0,65,0.00,,,0.00,Wunderground v.1.15,2013-09-28 22:10:00,
2013-09-28 18:15:00,70.9,59.0,30.06,East,90,5.0,-999.0,66,0.00,,,0.00,Wunderground v.1.15,2013-09-28 22:15:00,
2013-09-28 18:18:00,70.6,59.1,30.06,East,81,5.0,7.0,67,0.00,,,0.00,Wunderground v.1.15,2013-09-28 22:18:00,
2013-09-28 18:20:00,70.6,59.1,30.06,East,90,6.0,-999.0,67,0.00,,,0.00,Wunderground v.1.15,2013-09-28 22:20:00,
2013-09-28 18:25:00,70.3,58.4,30.06,East,90,6.0,-999.0,66,0.00,,,0.00,Wunderground v.1.15,2013-09-28 22:25:00,
2013-09-28 18:28:00,70.0,58.5,30.06,East,94,5.0,5.0,67,0.00,,,0.00,Wunderground v.1.15,2013-09-28 22:28:00,
2013-09-28 18:30:00,70.0,58.5,30.05,East,90,2.0,-999.0,67,0.00,,,0.00,Wunderground v.1.15,2013-09-28 22:30:00,
2013-09-28 18:35:00,69.9,58.4,30.05,East,90,5.0,-999.0,67,0.00,,,0.00,Wunderground v.1.15,2013-09-28 22:35:00,
2013-09-28 18:40:00,69.8,57.9,30.05,East,90,4.0,-999.0,66,0.00,,,0.00,Wunderground v.1.15,2013-09-28 22:40:00,
2013-09-28 18:45:00,69.4,57.5,30.05,ESE,113,4.0,-999.0,66,0.00,,,0.00,Wunderground v.1.15,2013-09-28 22:45:00,
2013-09-28 18:48:00,68.9,57.1,30.05,East,88,5.0,5.0,66,0.00,,,0.00,Wunderground v.1.15,2013-09-28 22:48:00,
2013-09-28 18:50:00,68.9,57.1,30.05,East,90,5.0,-999.0,66,0.00,,,0.00,Wunderground v.1.15,2013-09-28 22:50:00,
2013-09-28 18:55:00,68.4,57.0,30.05,ESE,113,4.0,-999.0,67,0.00,,,0.00,Wunderground v.1.15,2013-09-28 22:55:00,
2013-09-28 18:58:00,68.0,57.4,30.05,East,81,4.0,6.0,69,0.00,,,0.00,Wunderground v.1.15,2013-09-28 22:58:00,
2013-09-28 19:00:00,68.0,57.4,30.05,East,90,3.0,-999.0,69,0.00,,,0.00,Wunderground v.1.15,2013-09-28 23:00:00,
2013-09-28 19:05:00,67.6,57.5,30.05,East,90,4.0,-999.0,70,0.00,,,0.00,Wunderground v.1.15,2013-09-28 23:05:00,
2013-09-28 19:08:00,67.3,57.6,30.05,East,94,5.0,5.0,71,0.00,,,0.00,Wunderground v.1.15,2013-09-28 23:08:00,
2013-09-28 19:10:00,67.3,57.6,30.05,East,90,5.0,-999.0,71,0.00,,,0.00,Wunderground v.1.15,2013-09-28 23:10:00,
2013-09-28 19:15:00,66.9,58.0,30.05,East,90,5.0,-999.0,73,0.00,,,0.00,Wunderground v.1.15,2013-09-28 23:15:00,
2013-09-28 19:18:00,66.5,58.3,30.05,East,87,5.0,5.0,75,0.00,,,0.00,Wunderground v.1.15,2013-09-28 23:18:00,
2013-09-28 19:20:00,66.5,58.3,30.05,East,90,5.0,-999.0,75,0.00,,,0.00,Wunderground v.1.15,2013-09-28 23:20:00,
2013-09-28 19:25:00,66.2,58.4,30.05,East,90,4.0,-999.0,76,0.00,,,0.00,Wunderground v.1.15,2013-09-28 23:25:00,
2013-09-28 19:28:00,65.9,58.8,30.05,East,98,5.0,5.0,78,0.00,,,0.00,Wunderground v.1.15,2013-09-28 23:28:00,
2013-09-28 19:30:00,65.9,58.8,30.05,East,90,5.0,-999.0,78,0.00,,,0.00,Wunderground v.1.15,2013-09-28 23:30:00,
2013-09-28 19:35:00,65.7,59.0,30.05,East,90,4.0,-999.0,79,0.00,,,0.00,Wunderground v.1.15,2013-09-28 23:35:00,
2013-09-28 19:38:00,65.5,59.2,30.04,East,98,5.0,6.0,80,0.00,,,0.00,Wunderground v.1.15,2013-09-28 23:38:00,
2013-09-28 19:40:00,65.5,59.2,30.05,East,90,5.0,-999.0,80,0.00,,,0.00,Wunderground v.1.15,2013-09-28 23:40:00,
2013-09-28 19:45:00,65.3,59.3,30.04,East,90,5.0,-999.0,81,0.00,,,0.00,Wunderground v.1.15,2013-09-28 23:45:00,
2013-09-28 19:48:00,65.2,59.6,30.04,East,84,5.0,6.0,82,0.00,,,0.00,Wunderground v.1.15,2013-09-28 23:48:00,
2013-09-28 19:50:00,65.2,59.6,30.04,East,90,5.0,-999.0,82,0.00,,,0.00,Wunderground v.1.15,2013-09-28 23:50:00,
2013-09-28 19:55:00,65.0,59.4,30.04,East,90,5.0,-999.0,82,0.00,,,0.00,Wunderground v.1.15,2013-09-28 23:55:00,
2013-09-28 19:58:00,64.9,59.6,30.05,East,84,5.0,6.0,83,0.00,,,0.00,Wunderground v.1.15,2013-09-28 23:58:00,
2013-09-28 20:00:00,64.9,59.6,30.05,East,90,4.0,-999.0,83,0.00,,,0.00,Wunderground v.1.15,2013-09-29 00:00:00,
2013-09-28 20:05:00,64.8,59.5,30.05,East,90,5.0,-999.0,83,0.00,,,0.00,Wunderground v.1.15,2013-09-29 00:05:00,
2013-09-28 20:08:00,64.7,59.4,30.04,East,92,5.0,5.0,83,0.00,,,0.00,Wunderground v.1.15,2013-09-29 00:08:00,
2013-09-28 20:10:00,64.7,59.4,30.04,East,90,4.0,-999.0,83,0.00,,,0.00,Wunderground v.1.15,2013-09-29 00:10:00,
2013-09-28 20:15:00,64.6,59.3,30.04,East,90,3.0,-999.0,83,0.00,,,0.00,Wunderground v.1.15,2013-09-29 00:15:00,
2013-09-28 20:18:00,64.5,59.2,30.05,East,96,4.0,5.0,83,0.00,,,0.00,Wunderground v.1.15,2013-09-29 00:18:00,
2013-09-28 20:20:00,64.5,59.2,30.04,East,90,6.0,-999.0,83,0.00,,,0.00,Wunderground v.1.15,2013-09-29 00:20:00,
2013-09-28 20:25:00,64.6,59.3,30.05,East,90,4.0,-999.0,83,0.00,,,0.00,Wunderground v.1.15,2013-09-29 00:25:00,
2013-09-28 20:28:00,64.6,59.3,30.04,ESE,111,5.0,5.0,83,0.00,,,0.00,Wunderground v.1.15,2013-09-29 00:28:00,
2013-09-28 20:30:00,64.6,59.3,30.04,East,90,4.0,-999.0,83,0.00,,,0.00,Wunderground v.1.15,2013-09-29 00:30:00,
2013-09-28 20:35:00,64.6,59.3,30.05,East,90,4.0,-999.0,83,0.00,,,0.00,Wunderground v.1.15,2013-09-29 00:35:00,
2013-09-28 20:38:00,64.6,59.3,30.05,East,100,4.0,5.0,83,0.00,,,0.00,Wunderground v.1.15,2013-09-29 00:38:00,
2013-09-28 20:40:00,64.5,59.2,30.05,East,90,4.0,-999.0,83,0.00,,,0.00,Wunderground v.1.15,2013-09-29 00:40:00,
2013-09-28 20:45:00,64.6,59.3,30.05,East,90,4.0,-999.0,83,0.00,,,0.00,Wunderground v.1.15,2013-09-29 00:45:00,
2013-09-28 20:48:00,64.6,59.3,30.04,ESE,105,4.0,5.0,83,0.00,,,0.00,Wunderground v.1.15,2013-09-29 00:48:00,
2013-09-28 20:50:00,64.6,59.3,30.04,East,90,5.0,-999.0,83,0.00,,,0.00,Wunderground v.1.15,2013-09-29 00:50:00,
2013-09-28 20:55:00,64.7,59.4,30.04,East,90,5.0,-999.0,83,0.00,,,0.00,Wunderground v.1.15,2013-09-29 00:55:00,
2013-09-28 21:00:00,64.7,59.4,30.04,East,90,4.0,-999.0,83,0.00,,,0.00,Wunderground v.1.15,2013-09-29 01:00:00,
2013-09-28 21:05:00,64.7,59.8,30.04,ESE,113,4.0,-999.0,84,0.00,,,0.00,Wunderground v.1.15,2013-09-29 01:05:00,
2013-09-28 21:08:00,64.8,59.9,30.04,SE,126,4.0,4.0,84,0.00,,,0.00,Wunderground v.1.15,2013-09-29 01:08:00,
2013-09-28 21:10:00,64.8,59.9,30.04,ESE,113,1.0,-999.0,84,0.00,,,0.00,Wunderground v.1.15,2013-09-29 01:10:00,
2013-09-28 21:15:00,64.8,59.9,30.04,ESE,113,3.0,-999.0,84,0.00,,,0.00,Wunderground v.1.15,2013-09-29 01:15:00,
2013-09-28 21:20:00,64.9,60.3,30.04,SE,135,2.0,-999.0,85,0.00,,,0.00,Wunderground v.1.15,2013-09-29 01:20:00,
2013-09-28 21:25:00,64.9,60.3,30.04,ESE,113,1.0,-999.0,85,0.00,,,0.00,Wunderground v.1.15,2013-09-29 01:25:00,
2013-09-28 21:30:00,64.9,60.3,30.04,ESE,113,2.0,-999.0,85,0.00,,,0.00,Wunderground v.1.15,2013-09-29 01:30:00,
2013-09-28 21:35:00,64.9,60.3,30.03,ESE,113,2.0,-999.0,85,0.00,,,0.00,Wunderground v.1.15,2013-09-29 01:35:00,
2013-09-28 21:40:00,64.9,60.3,30.03,ESE,113,4.0,-999.0,85,0.00,,,0.00,Wunderground v.1.15,2013-09-29 01:40:00,
2013-09-28 21:45:00,65.0,60.4,30.03,ESE,113,2.0,-999.0,85,0.00,,,0.00,Wunderground v.1.15,2013-09-29 01:45:00,
2013-09-28 21:50:00,65.1,60.1,30.03,SE,135,3.0,-999.0,84,0.00,,,0.00,Wunderground v.1.15,2013-09-29 01:50:00,
2013-09-28 21:55:00,65.2,59.9,30.03,SE,135,3.0,-999.0,83,0.00,,,0.00,Wunderground v.1.15,2013-09-29 01:55:00,
2013-09-28 22:00:00,65.5,59.9,30.03,SE,135,4.0,-999.0,82,0.00,,,0.00,Wunderground v.1.15,2013-09-29 02:00:00,
2013-09-28 22:05:00,65.9,59.9,30.03,SE,135,4.0,-999.0,81,0.00,,,0.00,Wunderground v.1.15,2013-09-29 02:05:00,
2013-09-28 22:10:00,66.3,59.9,30.03,SSE,158,3.0,-999.0,80,0.00,,,0.00,Wunderground v.1.15,2013-09-29 02:10:00,
2013-09-28 22:15:00,66.6,60.2,30.03,SSE,158,4.0,-999.0,80,0.00,,,0.00,Wunderground v.1.15,2013-09-29 02:15:00,
2013-09-28 22:20:00,66.7,60.0,30.03,SSE,158,3.0,-999.0,79,0.00,,,0.00,Wunderground v.1.15,2013-09-29 02:20:00,
2013-09-28 22:25:00,66.8,59.7,30.03,SSE,158,3.0,-999.0,78,0.00,,,0.00,Wunderground v.1.15,2013-09-29 02:25:00,
2013-09-28 22:30:00,66.8,59.7,30.02,SSE,158,3.0,-999.0,78,0.00,,,0.00,Wunderground v.1.15,2013-09-29 02:30:00,
2013-09-28 22:35:00,66.8,59.7,30.03,SE,135,4.0,-999.0,78,0.00,,,0.00,Wunderground v.1.15,2013-09-29 02:35:00,
2013-09-28 22:40:00,66.8,60.1,30.02,SSE,158,4.0,-999.0,79,0.00,,,0.00,Wunderground v.1.15,2013-09-29 02:40:00,
2013-09-28 22:45:00,66.7,60.0,30.02,SSE,158,5.0,-999.0,79,0.00,,,0.00,Wunderground v.1.15,2013-09-29 02:45:00,
2013-09-28 22:50:00,66.7,59.6,30.02,SSE,158,5.0,-999.0,78,0.00,,,0.00,Wunderground v.1.15,2013-09-29 02:50:00,
2013-09-28 22:55:00,66.6,59.5,30.02,SSE,158,5.0,-999.0,78,0.00,,,0.00,Wunderground v.1.15,2013-09-29 02:55:00,
2013-09-28 23:00:00,66.6,59.2,30.02,SSE,158,5.0,-999.0,77,0.00,,,0.00,Wunderground v.1.15,2013-09-29 03:00:00,
2013-09-28 23:05:00,66.6,59.2,30.02,SSE,158,5.0,-999.0,77,0.00,,,0.00,Wunderground v.1.15,2013-09-29 03:05:00,
2013-09-28 23:10:00,66.7,59.3,30.02,SSE,158,3.0,-999.0,77,0.00,,,0.00,Wunderground v.1.15,2013-09-29 03:10:00,
2013-09-28 23:15:00,66.7,59.3,30.02,SSE,158,6.0,-999.0,77,0.00,,,0.00,Wunderground v.1.15,2013-09-29 03:15:00,
2013-09-28 23:20:00,66.7,59.3,30.02,SSE,158,5.0,-999.0,77,0.00,,,0.00,Wunderground v.1.15,2013-09-29 03:20:00,
2013-09-28 23:25:00,66.6,59.2,30.01,SSE,158,5.0,-999.0,77,0.00,,,0.00,Wunderground v.1.15,2013-09-29 03:25:00,
2013-09-28 23:30:00,66.5,58.7,30.02,SSE,158,6.0,-999.0,76,0.00,,,0.00,Wunderground v.1.15,2013-09-29 03:30:00,
2013-09-28 23:35:00,66.5,58.7,30.02,SSE,158,6.0,-999.0,76,0.00,,,0.00,Wunderground v.1.15,2013-09-29 03:35:00,
2013-09-28 23:40:00,66.5,59.1,30.01,SSE,158,4.0,-999.0,77,0.00,,,0.00,Wunderground v.1.15,2013-09-29 03:40:00,
2013-09-28 23:45:00,66.5,59.1,30.01,SSE,158,3.0,-999.0,77,0.00,,,0.00,Wunderground v.1.15,2013-09-29 03:45:00,
2013-09-28 23:50:00,66.4,59.0,30.01,SE,135,5.0,-999.0,77,0.00,,,0.00,Wunderground v.1.15,2013-09-29 03:50:00,
2013-09-28 23:55:00,66.4,59.0,30.01,SSE,158,5.0,-999.0,77,0.00,,,0.00,Wunderground v.1.15,2013-09-29 03:55:00,